Wind_Speed
7 6 7 8 9 10 10 11 13 15 17 18 20 22 23 24 24 23 22 21 20 20 22 22 23 28 33 40 49 49 43 40 44 49 48 41 38 37 36 37 37 36 36 36 37 38 38 37 37 36 37 36 35 34 31 30 29 28 27 27 26 24 22 22 23 22 20 20 19 17 18 19 19 19 19 20 21 21 21 21 19 18 17 16 16
6 6 6 7 8 9 10 11 12 14 15 17 18 19 22 23 24 25 24 24 23 22 22 21 20 22 25 33 48 53 47 44 46 50 51 47 42 40 39 39 38 36 35 34 34 36 37 37 37 37 36 35 33 32 31 30 29 28 27 26 25 24 23 22 22 23 22 21 20 19 19 20 20 20 21 21 23 23 23 23 21 19 19 18 18
6 6 6 6 7 8 9 10 11 12 14 16 17 18 20 22 23 24 25 25 25 24 24 23 21 20 21 25 39 52 52 49 49 50 50 48 45 44 43 43 41 39 37 35 34 35 35 36 36 36 35 34 32 31 32 31 30 28 27 26 25 25 24 24 23 23 23 22 21 20 20 21 21 22 22 22 24 25 24 24 24 22 21 20 20
7 6 6 7 6 7 8 8 9 10 12 13 16 18 19 21 21 22 24 25 26 26 25 24 23 22 21 21 28 41 49 51 50 49 49 49 48 46 45 45 44 43 43 41 39 38 37 36 35 35 34 33 32 33 33 31 30 30 28 27 27 27 27 27 26 25 24 23 23 23 22 22 22 22 22 23 25 25 25 25 26 25 24 22 22
7 6 6 6 6 5 6 6 7 8 9 10 13 15 17 19 21 21 22 23 24 25 26 26 25 24 23 23 25 31 39 44 45 46 48 50 49 44 41 41 42 44 45 44 44 44 41 39 37 36 36 35 34 34 33 32 31 32 31 30 30 29 29 29 29 28 27 26 26 26 25 24 24 23 24 24 24 25 25 26 27 28 27 25 24
7 5 5 5 5 4 4 5 5 6 7 8 9 12 14 16 17 19 21 22 23 24 25 27 27 26 26 25 26 27 31 34 35 36 39 42 43 40 35 35 37 38 38 38 41 45 46 45 42 39 37 36 35 36 34 32 33 33 33 32 31 31 30 29 30 30 30 29 28 28 28 27 27 26 26 25 25 25 25 25 27 29 29 27 26
6 5 4 4 4 4 4 4 4 5 5 6 7 9 11 12 14 16 18 19 21 22 23 25 27 28 28 28 28 28 28 29 29 30 32 34 36 35 32 31 31 31 32 33 34 37 41 46 48 45 41 37 37 38 35 32 34 34 33 33 32 31 31 30 31 31 31 30 30 31 30 29 29 28 27 27 27 26 26 26 27 27 27 27 27
6 4 4 4 4 4 4 3 3 4 4 4 5 6 8 10 11 13 15 17 18 19 21 22 24 26 28 29 30 30 29 29 29 30 31 32 33 32 30 29 28 28 30 31 31 32 34 38 43 46 43 39 39 39 35 34 35 34 35 35 33 31 31 31 32 32 31 31 31 31 31 30 29 28 28 28 27 26 26 27 28 27 26 27 27
5 4 4 5 5 4 3 2 1 2 3 3 4 4 6 8 9 11 12 14 16 17 19 20 21 23 25 27 29 31 31 31 31 31 32 32 32 32 31 30 29 29 30 30 30 31 31 32 35 40 41 38 36 36 36 36 36 36 38 37 33 31 32 32 33 33 32 31 31 30 29 28 28 27 27 28 27 26 27 28 28 28 28 29 29
4 4 4 5 6 4 3 1 0 0 1 2 2 3 5 6 7 9 11 12 14 15 17 18 19 20 22 24 26 28 31 33 34 33 32 33 33 33 34 34 33 32 33 32 32 31 32 32 32 35 38 38 35 33 34 35 36 36 37 36 33 33 34 33 33 33 32 31 30 28 27 28 27 26 27 26 26 26 27 29 29 28 28 29 30
3 4 5 5 6 5 4 2 0 1 0 0 1 2 3 3 4 7 9 11 13 14 15 17 18 19 20 21 23 25 28 31 34 34 34 35 35 35 35 36 36 36 36 35 34 34 34 34 33 32 34 36 35 32 32 33 34 34 35 35 34 34 35 34 33 33 33 32 30 29 30 30 29 29 29 26 24 26 27 28 29 28 28 28 29
2 3 5 5 6 6 5 3 1 0 1 1 1 1 2 2 2 3 5 8 10 13 15 16 17 18 20 21 22 23 24 25 27 30 34 36 37 37 37 37 37 37 38 37 37 36 36 36 36 34 33 33 32 32 31 31 32 33 34 35 36 36 37 37 36 36 36 35 35 34 34 33 32 32 31 27 25 27 28 28 30 29 30 31 30
3 1 3 4 5 6 6 4 3 1 1 1 2 2 3 4 4 3 2 2 5 8 12 14 16 18 19 20 21 21 21 22 23 25 29 33 36 38 39 39 39 39 39 39 39 39 39 39 39 39 37 35 34 34 33 33 33 34 36 37 37 38 39 40 40 40 40 41 41 40 38 37 36 34 31 28 29 31 30 30 30 31 32 32 31
4 1 1 3 3 5 6 5 4 3 2 2 1 2 3 4 4 4 4 3 1 2 6 10 13 15 16 18 19 20 21 21 22 23 24 26 30 33 37 39 40 41 40 40 40 40 41 42 42 42 42 41 40 39 38 37 37 38 39 40 40 41 41 42 42 43 43 45 46 44 42 39 38 37 34 33 33 33 32 31 32 34 34 34 32
4 3 1 1 2 4 6 7 6 4 3 2 1 2 3 3 3 4 5 5 4 3 0 4 7 10 12 14 16 18 19 20 21 22 23 24 25 27 30 34 37 39 40 40 40 40 41 42 43 44 44 45 45 45 44 44 44 44 44 44 44 44 44 44 44 45 45 46 47 47 45 42 40 39 38 38 37 36 35 35 35 36 36 35 34
4 4 4 1 1 3 5 7 7 6 4 3 2 2 2 2 3 3 4 4 4 3 2 1 2 4 7 9 12 13 15 17 18 20 22 23 24 26 27 28 31 33 35 37 38 39 40 41 42 43 44 46 47 48 49 49 49 49 49 49 48 47 47 46 46 46 47 48 48 48 48 46 44 43 42 42 42 41 39 39 39 37 36 37 37
4 5 5 3 1 2 4 6 6 6 5 4 4 3 3 2 2 2 3 3 3 3 3 2 1 1 2 5 7 9 11 12 14 15 17 19 22 24 25 26 27 29 30 32 33 34 35 36 38 39 41 43 45 47 49 50 51 52 52 52 52 52 51 50 50 50 50 50 50 50 50 50 49 48 46 46 46 45 45 45 42 39 39 41 41
5 5 6 5 2 1 3 5 6 6 6 6 5 4 4 4 3 3 3 3 3 3 3 2 2 1 1 1 3 4 6 9 10 12 13 15 17 19 20 22 24 25 26 28 29 30 31 32 34 35 37 39 41 43 46 48 50 52 53 54 55 55 54 54 53 54 54 54 53 53 53 53 53 53 52 51 50 49 49 49 46 44 45 46 46
5 5 5 4 3 2 3 4 6 6 7 7 6 6 6 6 6 6 5 5 4 4 3 3 3 2 2 1 1 2 3 5 7 8 10 12 13 15 16 17 18 20 21 22 24 25 26 28 30 32 34 36 37 39 42 44 46 48 50 52 54 55 55 55 56 56 57 57 57 57 56 56 56 57 57 55 54 54 54 53 50 49 50 50 49
5 5 4 4 3 3 3 3 4 6 7 7 8 8 8 8 8 8 8 7 7 7 6 5 5 4 4 3 3 3 3 4 5 6 7 9 10 11 13 14 14 15 16 17 18 20 21 23 25 27 30 32 34 36 37 40 42 43 45 47 50 50 51 53 55 56 57 58 58 59 60 59 59 60 60 59 59 58 58 57 56 54 55 55 54
5 5 4 4 3 3 3 3 3 4 5 6 7 8 8 8 8 8 8 8 8 8 8 8 7 7 7 6 6 5 5 5 5 6 7 7 8 9 10 10 11 12 13 14 15 16 18 19 21 23 25 26 28 30 32 34 36 38 40 41 43 43 45 47 49 51 52 54 56 57 59 59 60 61 61 61 61 61 61 61 61 60 59 59 57
5 5 5 4 4 3 3 3 2 2 3 4 5 6 6 7 7 7 7 8 8 8 8 9 9 9 8 8 8 8 8 8 7 7 7 8 8 9 9 9 9 10 11 12 13 14 16 17 19 20 21 22 23 25 27 28 31 33 34 36 37 38 39 41 43 44 46 47 50 53 55 56 57 57 57 56 57 58 58 60 62 63 64 64 61
5 5 5 5 4 4 3 3 3 2 2 1 2 2 3 4 5 5 6 7 7 8 8 8 9 9 9 9 9 9 9 9 9 9 9 9 9 9 10 10 10 11 12 13 14 15 16 17 19 20 21 22 23 24 25 26 28 29 30 31 33 34 36 37 39 40 40 41 43 46 48 50 52 52 52 51 50 50 50 53 56 58 59 61 62
5 5 5 5 5 4 4 4 4 5 4 3 3 2 2 1 0 1 2 3 3 4 5 6 6 7 7 8 8 8 8 9 9 9 10 10 10 10 10 10 11 11 12 13 14 16 17 19 20 22 24 25 26 27 28 29 30 30 30 30 30 31 32 34 35 36 36 37 38 39 40 42 44 47 49 50 50 48 48 50 54 55 55 55 57
6 6 5 5 5 5 5 6 6 7 7 6 6 6 6 5 4 4 3 3 2 2 1 1 2 3 3 4 5 6 7 8 8 8 9 9 9 9 10 10 10 10 11 13 14 15 16 18 19 21 22 24 25 26 27 29 30 31 31 30 30 30 31 32 32 33 35 35 36 36 36 35 36 39 42 45 48 48 48 49 52 54 54 54 54
7 7 7 6 7 7 8 8 8 8 8 8 8 8 8 7 7 7 7 7 7 6 6 5 4 3 2 1 1 1 2 3 4 5 6 7 8 8 9 9 10 10 10 11 12 13 14 15 16 18 19 21 23 24 25 26 27 28 29 29 29 29 30 30 31 31 33 34 35 35 33 31 31 32 34 38 41 44 45 48 49 50 51 51 52
8 8 8 7 8 9 9 10 9 9 10 10 10 10 10 9 9 9 9 9 9 9 9 9 8 8 8 7 6 6 5 5 4 4 4 5 5 6 7 7 8 8 9 9 10 11 12 13 14 15 17 18 19 20 21 22 22 23 24 25 26 27 28 28 29 29 30 31 32 31 30 28 27 28 29 31 34 36 38 42 45 46 48 50 51
8 8 8 8 8 9 9 10 9 9 10 10 10 10 10 10 10 10 10 10 10 10 10 10 10 10 10 11 11 11 10 10 9 9 8 7 7 7 7 7 7 7 8 8 9 9 10 11 12 13 14 15 15 16 17 17 18 18 19 20 21 23 24 25 26 26 27 27 28 28 27 25 25 25 25 26 29 30 31 34 38 41 45 48 50
7 7 7 7 7 7 8 8 9 9 9 9 9 9 9 9 10 10 10 10 10 10 10 10 10 11 11 12 13 12 12 11 10 9 9 9 8 8 8 7 7 7 7 7 7 7 8 9 10 10 12 13 13 13 14 15 15 16 17 17 18 19 20 21 22 23 24 24 25 25 25 25 24 25 25 25 26 26 26 29 33 37 40 44 47
6 6 6 5 6 6 6 7 7 7 7 7 7 7 7 7 8 9 9 10 10 10 10 10 10 10 10 11 12 11 11 10 10 9 10 9 8 8 7 7 7 7 7 7 7 7 8 9 9 10 11 11 11 11 11 12 12 14 15 16 17 17 18 18 19 20 21 21 22 23 23 24 24 24 25 26 26 27 27 28 31 33 36 39 43
5 5 4 4 4 4 4 5 5 5 6 6 6 6 6 6 7 7 8 8 9 9 10 10 10 10 10 11 11 11 10 10 9 9 9 9 8 7 7 7 8 9 9 10 10 10 11 11 11 11 11 11 11 11 11 10 11 11 12 14 16 17 18 18 18 19 19 19 20 21 22 23 23 23 24 26 26 27 28 29 31 33 35 37 40
5 5 4 3 2 2 2 3 3 3 4 5 4 4 4 5 5 6 6 7 8 8 9 10 10 10 10 10 10 10 9 9 9 8 8 8 8 8 8 9 10 11 11 12 12 11 11 11 11 12 12 12 12 12 12 12 12 11 11 12 13 15 17 17 18 19 19 19 20 20 21 22 23 24 24 25 25 26 27 27 29 32 34 36 37
5 5 4 3 2 2 1 1 2 2 3 3 3 4 4 4 4 4 5 6 8 9 9 10 10 10 9 8 8 8 7 7 7 7 7 8 8 8 9 10 11 11 11 11 10 10 10 10 11 11 12 13 13 13 13 14 14 13 13 13 13 14 15 16 17 18 19 20 21 21 21 22 22 23 23 23 24 24 25 26 27 29 32 34 35
4 5 5 4 3 2 1 1 1 1 2 2 2 2 3 3 3 4 5 7 8 9 9 9 8 8 8 7 7 7 6 6 6 6 7 7 8 8 9 9 9 9 9 9 9 10 10 10 10 11 11 12 13 13 14 14 14 15 15 15 15 15 16 16 16 17 18 20 21 21 22 23 22 21 22 24 25 24 24 26 27 27 29 31 32
4 4 4 4 3 2 1 1 1 1 1 2 2 2 2 3 4 5 5 6 7 7 7 6 6 6 6 6 6 6 6 6 6 6 6 7 7 8 8 8 8 8 9 9 9 10 10 11 11 11 12 12 12 13 13 13 14 14 15 15 15 16 16 16 17 17 17 19 20 21 23 24 23 22 24 26 26 24 23 25 27 28 29 30 30
3 3 3 3 2 2 1 2 2 1 1 2 2 2 3 3 4 4 5 5 4 4 4 4 5 5 6 7 7 7 7 6 6 6 6 6 7 7 7 7 8 8 8 9 9 10 11 11 12 12 13 13 14 14 14 14 14 14 14 14 15 15 15 16 16 17 17 18 19 20 21 22 22 21 23 26 27 27 26 26 27 28 29 29 30
3 3 3 2 1 1 1 2 2 1 1 2 3 3 4 4 4 4 3 3 3 3 4 6 7 8 9 10 10 10 9 9 8 7 7 7 7 7 7 7 7 8 8 9 10 11 12 12 13 13 14 14 15 15 15 15 16 16 16 16 16 15 16 16 16 16 17 18 18 19 20 21 21 22 22 24 26 27 28 27 27 27 27 27 29
2 2 2 2 1 1 2 2 2 2 2 2 3 3 3 3 3 2 2 2 4 5 7 8 10 11 12 12 12 12 12 11 11 10 10 9 8 8 8 7 8 8 9 10 10 11 12 13 14 14 15 15 16 16 16 17 17 17 17 17 18 17 17 17 17 17 18 18 19 19 20 20 21 21 22 23 24 25 26 27 27 27 26 26 27
1 1 1 1 1 1 2 3 3 2 2 2 2 2 1 2 2 4 5 6 8 9 10 11 12 13 13 14 14 14 14 14 13 13 12 11 11 10 10 9 9 10 10 11 12 12 13 14 14 15 16 17 17 18 18 19 19 19 19 19 19 19 19 19 19 19 19 19 19 20 20 21 21 22 22 23 23 24 25 25 26 26 26 26 27
2 1 1 1 2 2 1 1 1 1 1 1 2 2 3 4 6 7 8 10 11 12 13 14 14 15 15 16 16 16 16 16 16 15 14 14 13 13 12 12 12 12 12 13 13 14 14 15 16 16 17 18 19 19 20 20 21 21 21 21 21 21 21 21 21 21 20 20 20 20 21 21 22 23 23 24 24 24 25 25 25 26 26 26 26
4 3 3 3 3 4 4 4 3 3 4 5 5 6 7 8 9 10 11 12 14 14 15 16 16 17 17 17 18 18 17 18 18 17 17 17 16 15 15 15 15 15 15 15 15 16 16 16 17 17 18 19 20 20 21 22 22 23 23 23 23 23 24 24 23 23 23 22 22 22 22 22 22 23 23 24 25 25 26 26 26 26 26 26 26
5 5 5 5 6 6 7 7 7 7 8 8 9 9 10 11 12 13 14 15 15 16 17 17 18 19 18 18 18 19 19 19 19 19 19 19 18 18 18 17 17 17 17 17 17 18 18 18 19 19 19 20 21 21 22 23 24 24 24 25 25 25 25 26 26 26 26 25 25 24 24 23 23 23 23 24 24 25 25 26 26 26 26 26 26
6 6 7 7 8 9 10 10 10 11 11 11 12 13 13 14 15 16 17 17 18 18 18 19 19 20 21 21 20 20 21 21 21 21 21 20 20 20 20 20 20 20 20 20 20 20 20 21 21 21 22 22 22 23 24 24 25 26 26 26 27 27 27 27 28 28 28 28 28 27 26 26 25 25 25 24 24 25 26 26 26 26 26 26 26
6 6 7 8 9 11 12 12 13 13 14 14 15 15 16 17 18 19 19 19 19 19 19 20 20 20 22 23 23 23 23 23 23 23 23 23 22 22 22 22 22 22 22 22 23 23 23 23 23 23 24 24 24 25 25 26 26 27 28 28 28 28 29 29 29 29 29 29 29 29 29 28 28 28 27 26 26 26 26 26 26 26 26 26 26
7 7 7 8 10 11 12 13 13 14 15 16 16 17 18 18 19 20 20 20 20 20 20 20 20 20 21 22 24 25 25 26 26 26 26 26 26 26 25 25 25 25 24 24 25 25 25 25 26 26 26 26 26 26 27 27 28 29 29 30 30 30 30 30 30 30 30 30 30 30 30 30 29 29 28 28 28 27 27 27 27 27 26 26 25
12 11 9 9 10 11 11 11 12 12 13 15 16 17 18 19 19 20 21 21 20 20 20 21 21 21 21 21 23 24 25 26 27 28 28 28 29 28 28 28 27 27 27 27 27 28 28 27 28 28 28 29 29 29 29 29 29 30 30 31 32 32 32 32 32 32 32 32 31 31 31 31 30 30 29 29 29 28 28 27 27 27 27 26 25
15 14 12 11 12 12 12 12 12 13 13 14 15 16 17 17 18 20 21 21 21 21 22 23 23 23 23 23 24 25 26 27 27 28 29 29 30 30 30 29 29 29 29 29 29 30 30 30 30 30 30 31 31 31 31 32 32 32 32 33 33 33 34 34 34 34 34 33 33 32 31 31 31 30 30 29 29 29 28 28 28 27 27 26 25
14 14 13 13 14 14 14 15 16 16 15 15 16 17 17 18 19 20 20 22 22 23 24 24 25 25 25 26 27 28 29 30 30 30 31 31 31 31 31 31 31 31 31 31 31 32 32 33 33 32 33 33 33 33 33 33 34 35 35 35 35 35 35 35 35 35 35 35 34 33 32 31 31 31 30 30 29 29 28 28 27 27 27 26 25
15 15 15 15 14 14 16 18 20 20 19 18 18 18 18 20 21 21 21 22 24 24 25 24 23 24 26 28 30 31 32 33 33 34 34 34 33 32 32 32 32 32 32 32 33 33 34 35 35 35 35 35 35 35 35 35 36 36 37 37 37 37 37 37 37 36 36 35 35 34 33 32 31 31 31 30 29 29 28 28 27 27 26 26 25
17 17 17 17 17 18 19 20 21 22 22 21 21 21 22 23 23 23 24 25 26 26 27 26 24 24 26 29 31 33 33 33 34 35 36 36 36 35 34 33 33 33 33 34 34 35 35 36 37 37 38 38 37 37 38 38 39 39 39 39 38 38 38 38 38 37 36 36 35 34 34 33 32 31 31 30 30 29 29 28 28 27 26 26 25
19 20 21 23 24 24 24 23 21 21 22 23 23 24 26 26 25 25 26 28 28 29 29 28 26 27 28 30 32 34 35 35 34 35 37 38 37 36 35 34 34 34 34 35 36 36 37 37 38 39 39 39 39 39 40 40 41 42 42 41 41 40 39 39 39 38 37 36 35 34 33 32 32 31 31 31 30 29 29 28 28 27 27 26 25
Wind_Direction
324 303 278 266 261 258 250 241 237 233 232 230 228 230 231 231 231 228 227 228 229 234 236 237 240 242 241 232 218 210 211 217 220 221 222 225 227 228 231 233 233 232 234 237 239 240 240 241 241 241 242 245 248 250 250 250 250 250 250 249 248 250 250 251 254 253 249 246 243 239 240 246 248 245 244 248 252 256 261 265 269 273 274 269 263
316 305 289 274 264 263 257 248 242 237 235 233 230 230 232 232 233 231 230 229 227 229 234 238 242 246 247 234 218 212 213 216 219 221 223 224 225 227 232 236 234 232 233 235 238 240 240 240 240 240 242 243 245 247 248 248 249 249 249 248 248 249 251 252 254 254 251 248 246 242 239 242 244 243 241 243 248 252 255 260 263 266 270 271 269
302 296 290 282 271 267 263 256 247 240 238 236 232 231 232 234 235 234 233 233 231 231 232 235 239 242 247 239 222 216 217 220 222 224 225 226 227 230 235 237 234 235 237 237 238 239 239 239 238 238 240 241 241 242 244 247 249 249 248 247 248 250 251 252 254 254 253 250 249 246 244 243 243 243 241 241 245 250 252 256 260 261 263 267 270
299 290 285 281 274 266 263 258 251 243 240 238 234 232 232 234 236 236 235 235 235 234 234 234 236 236 238 239 228 222 223 225 227 228 227 228 230 234 239 239 237 239 240 239 240 240 239 238 237 238 239 239 239 240 242 244 247 249 249 248 249 251 252 252 253 254 254 252 250 249 248 247 245 245 244 241 244 248 251 254 258 259 259 259 263
308 295 284 281 274 265 258 251 247 243 240 239 236 233 232 234 236 238 238 238 237 237 236 235 235 234 233 233 231 229 230 232 233 233 231 230 232 235 240 241 241 242 242 239 237 238 238 238 238 239 240 240 241 241 242 243 245 248 249 249 250 252 253 253 253 254 254 254 254 253 251 249 247 246 245 243 243 246 250 253 257 259 260 258 258
318 302 284 280 271 260 251 243 238 236 237 239 238 236 234 234 236 238 239 240 240 240 239 238 236 234 232 231 231 231 233 234 234 233 232 229 228 229 232 235 237 239 241 238 235 236 237 237 239 241 241 242 243 242 241 242 245 247 248 249 251 253 255 255 255 255 255 255 256 257 256 252 248 246 246 245 243 245 248 252 255 259 262 261 260
319 307 282 268 256 250 248 244 239 237 238 238 236 236 237 236 236 238 239 240 242 242 242 241 239 236 234 233 232 232 233 232 230 229 228 224 222 224 227 231 233 235 239 239 238 238 239 239 239 240 241 243 244 244 242 242 245 247 249 250 250 252 256 257 258 257 256 256 256 258 258 255 250 247 247 246 245 245 247 250 254 258 260 262 262
311 296 271 249 236 241 251 249 241 238 238 236 235 234 237 240 240 240 241 242 243 245 245 244 242 240 238 236 235 234 234 234 233 231 229 226 224 225 228 233 236 238 241 243 243 244 245 243 240 239 240 243 245 246 244 244 246 248 250 249 248 250 255 257 259 259 257 256 257 258 258 257 255 253 252 250 250 250 251 252 254 257 259 260 261
300 275 255 236 224 225 240 249 246 239 236 239 245 245 241 243 244 243 243 243 243 244 246 246 246 245 243 240 238 237 236 236 236 236 235 233 231 230 232 235 238 240 242 244 245 244 244 243 240 237 238 242 245 245 246 247 248 249 251 251 248 248 252 254 257 257 256 255 255 255 255 254 255 255 255 256 256 256 256 256 256 257 260 261 260
290 251 237 228 216 207 207 221 277 294 251 251 262 266 258 251 250 248 244 242 242 242 243 244 245 246 247 246 244 242 240 238 237 237 237 237 237 236 236 237 238 240 242 244 245 244 241 239 236 234 235 239 242 244 245 246 246 246 248 251 250 249 249 251 251 252 251 250 249 250 251 252 252 251 251 253 256 257 257 258 258 259 261 262 262
288 228 221 222 213 203 197 191 98 24 333 275 286 284 278 265 258 255 248 243 241 239 239 240 240 241 245 248 248 246 243 241 239 239 239 239 240 240 240 241 241 241 242 243 244 244 243 239 235 231 231 234 237 239 240 241 242 242 245 248 250 250 251 251 248 246 245 245 245 248 251 254 254 252 251 251 254 258 259 260 261 261 261 261 263
322 209 208 215 211 207 204 198 202 298 305 331 337 322 327 332 317 283 255 244 240 237 237 237 236 236 238 242 246 248 249 248 245 243 241 241 242 244 245 246 246 245 245 245 245 245 244 241 237 233 230 230 232 235 236 238 240 242 244 245 247 249 251 251 250 248 247 248 249 250 252 255 255 255 256 257 260 262 263 264 264 263 263 263 264
13 192 200 209 212 211 209 206 210 239 289 314 347 359 358 356 358 2 349 271 243 236 235 235 235 236 236 239 244 247 250 250 248 245 243 242 243 244 246 248 248 248 247 246 246 246 245 243 241 238 236 235 236 238 240 241 241 242 244 245 246 247 249 250 251 251 251 252 253 253 254 256 257 258 260 262 263 264 264 265 266 266 265 264 264
30 37 199 206 216 215 210 207 209 218 251 276 339 11 5 3 6 16 27 28 11 246 235 236 237 238 239 240 242 244 244 245 245 246 246 245 244 244 245 247 249 249 250 249 248 247 247 246 244 243 241 240 240 241 242 243 243 242 243 244 245 246 247 248 250 252 252 252 253 253 254 257 260 263 264 264 262 263 264 263 264 266 266 264 262
41 37 23 221 222 217 210 208 207 209 224 248 284 342 356 9 13 16 25 31 33 36 308 243 241 242 242 243 243 244 244 244 243 243 244 245 245 244 245 246 248 249 251 251 251 250 249 248 248 247 246 245 245 245 245 246 247 247 247 247 246 245 245 247 248 250 252 253 253 252 252 254 257 261 263 264 263 262 262 261 261 262 264 264 264
44 38 24 352 234 213 213 215 213 210 218 239 265 291 321 359 13 11 12 14 19 29 32 354 262 249 248 248 248 248 248 247 246 244 243 243 244 245 245 246 247 248 250 251 252 252 252 251 251 250 250 250 250 250 251 253 254 254 254 253 252 250 249 248 248 249 251 252 252 252 252 252 254 257 259 262 263 262 261 259 258 260 263 265 265
35 32 21 6 328 214 214 220 222 221 227 243 259 268 276 297 345 2 359 358 0 4 4 4 355 307 268 258 256 256 254 254 253 251 248 245 244 245 246 246 247 249 250 251 253 254 255 255 255 255 254 253 253 253 254 255 257 257 257 257 257 255 254 253 252 252 252 252 252 252 252 252 253 254 255 257 260 262 262 261 262 263 265 266 267
24 23 15 4 345 251 215 220 226 228 234 245 254 259 262 265 278 295 309 324 336 340 342 341 342 341 319 284 268 261 259 258 257 257 255 253 251 249 248 248 249 249 250 252 253 254 255 256 257 258 257 256 256 255 255 255 256 257 257 258 258 258 257 256 256 256 255 255 254 253 253 253 254 254 254 255 257 259 260 262 264 265 265 266 267
15 13 8 359 344 306 246 234 236 239 242 247 253 260 262 261 264 268 274 284 289 289 296 304 310 306 291 279 266 254 254 253 253 255 256 256 256 255 254 254 253 253 253 254 254 255 256 256 256 256 257 257 257 257 256 256 256 256 257 257 258 258 258 258 258 258 257 257 257 256 255 255 255 255 255 255 255 256 257 259 260 261 263 265 267
8 7 6 358 345 325 298 272 259 257 257 256 258 260 261 262 264 265 267 271 271 269 269 272 280 284 280 274 264 251 245 243 241 245 249 252 255 257 257 259 259 260 260 259 259 259 259 259 258 257 257 258 258 258 258 258 258 258 258 258 258 258 258 258 258 258 258 258 258 258 257 257 256 257 257 257 256 256 257 257 258 259 260 262 264
8 9 12 9 358 343 324 309 294 280 272 266 263 262 261 263 266 267 267 267 265 263 263 265 269 273 273 272 269 262 256 251 246 243 243 245 250 253 256 259 261 262 263 264 264 263 263 264 264 264 263 263 263 263 262 262 262 262 261 260 260 260 259 259 258 258 257 257 257 257 257 257 257 257 258 258 258 258 258 257 258 258 258 259 260
10 12 16 15 13 8 355 342 327 305 286 273 268 265 262 262 263 264 264 261 260 260 260 263 266 268 269 269 266 264 263 262 259 256 253 251 251 253 256 258 259 261 262 263 264 264 265 267 268 269 270 270 270 270 269 268 268 267 266 265 263 261 260 260 259 258 257 257 257 256 256 256 256 256 257 257 257 258 258 258 257 257 257 258 258
12 11 12 15 23 26 27 32 31 22 358 318 289 274 267 263 261 263 263 261 260 260 259 260 263 265 266 267 266 266 266 266 267 266 265 264 262 262 263 264 264 264 264 264 264 265 266 268 269 271 273 273 274 275 275 274 273 272 271 269 266 264 262 261 261 261 261 260 259 258 257 256 255 255 255 255 255 255 255 256 255 255 255 256 257
30 22 15 18 26 30 39 51 56 57 56 51 52 58 56 44 38 255 261 264 265 265 265 265 265 265 265 265 266 266 266 266 268 268 268 268 267 267 266 264 262 262 261 261 261 262 263 264 266 269 271 273 274 275 274 274 274 272 271 269 268 267 265 263 263 263 263 264 264 263 261 260 257 256 255 255 255 254 254 254 254 254 254 254 255
56 47 37 35 40 41 45 52 55 54 54 54 56 60 61 62 63 68 72 74 73 70 56 300 282 276 270 265 262 262 262 265 269 272 274 276 277 277 276 272 268 265 263 262 262 261 261 263 265 269 272 275 277 277 276 274 271 269 267 265 265 265 265 265 265 264 264 264 265 266 267 266 264 261 258 257 256 255 255 254 255 256 256 254 254
66 63 57 54 57 58 53 50 49 48 47 49 51 52 54 54 54 56 60 62 62 64 67 69 68 65 60 48 1 294 280 277 277 279 280 283 283 284 284 282 279 275 272 271 270 270 272 275 278 281 284 286 287 286 285 282 276 271 266 263 261 261 263 266 268 268 268 267 266 267 268 269 268 265 262 260 258 257 255 255 255 256 257 258 257
68 69 66 60 61 63 60 55 50 47 46 46 46 49 50 51 52 53 54 55 55 55 58 60 62 61 59 58 55 52 47 39 28 15 355 338 326 318 315 311 307 304 302 300 297 296 296 297 297 296 295 295 294 294 293 291 287 280 272 265 262 261 263 266 270 271 272 271 270 270 270 270 270 269 266 265 264 262 259 258 258 258 257 258 260
64 66 66 63 61 60 60 59 55 51 49 46 44 46 48 50 53 55 55 55 54 54 57 59 61 61 63 64 63 59 54 51 46 39 33 25 17 8 2 354 347 341 335 328 321 316 312 309 308 309 310 311 311 309 306 300 294 287 279 274 271 269 270 272 273 273 273 272 272 272 271 270 270 269 269 268 268 267 264 261 260 260 260 261 261
57 59 59 61 63 61 60 59 55 52 51 48 46 46 47 50 54 59 63 64 64 64 64 65 67 70 72 72 69 64 60 59 56 53 49 43 37 32 28 24 20 13 5 355 344 334 325 320 322 327 329 328 325 321 317 310 300 290 283 278 277 278 279 280 279 278 277 274 271 270 270 269 268 268 268 267 265 265 264 261 259 258 261 263 264
43 47 47 48 55 63 66 64 60 57 54 51 51 51 53 55 58 62 68 74 78 81 81 81 81 81 79 77 74 70 66 63 61 60 57 53 48 47 46 45 42 36 28 21 11 2 354 347 344 341 338 336 333 328 323 317 306 295 287 282 281 282 284 286 287 286 283 280 277 275 273 273 272 271 270 267 265 263 261 259 257 256 258 261 264
22 32 36 33 35 48 64 71 70 67 63 60 58 58 61 66 69 72 77 81 86 89 90 90 89 87 84 83 82 78 72 66 62 60 59 55 50 51 50 48 43 37 32 27 22 17 12 4 357 353 349 347 346 341 335 328 318 305 294 287 284 284 286 289 291 290 288 286 283 281 280 278 277 274 272 269 267 264 262 261 259 257 257 259 264
10 11 18 22 15 13 47 73 78 79 79 76 71 71 72 74 79 84 87 88 89 88 88 88 88 85 82 80 77 74 69 63 56 52 50 45 40 40 41 39 35 31 29 25 21 17 14 9 5 3 2 0 358 354 349 344 337 327 315 302 294 290 289 288 288 288 287 286 285 283 282 280 279 276 274 272 270 267 265 263 261 260 260 262 264
4 358 356 359 353 336 354 59 82 93 93 88 84 83 87 87 89 92 95 97 96 95 94 92 88 84 79 73 68 63 59 53 46 43 43 42 39 40 42 38 33 30 27 22 17 14 12 10 8 6 6 6 5 3 360 356 350 344 338 329 320 311 304 298 293 290 288 288 289 289 286 284 282 279 277 275 274 272 270 267 263 261 262 264 265
6 357 347 341 338 332 328 1 68 92 98 96 89 86 91 95 98 100 103 104 104 102 99 93 86 78 70 61 55 49 44 39 36 34 36 38 40 43 44 40 35 33 29 23 20 17 15 13 11 9 8 7 6 6 4 2 359 354 350 345 339 332 325 319 312 305 298 295 295 296 295 294 291 287 283 279 272 268 270 273 272 268 266 264 265
11 6 352 338 332 333 343 3 29 60 94 97 89 87 92 96 97 101 104 104 103 99 92 83 72 59 47 35 27 23 22 20 17 18 22 26 28 31 33 31 30 30 27 23 21 19 16 15 13 10 9 7 6 4 3 1 360 358 355 351 348 343 337 332 325 318 310 303 299 296 295 296 295 290 286 283 276 269 269 273 274 273 271 268 267
7 6 359 345 331 333 8 24 23 33 88 98 95 97 102 99 100 105 104 99 90 79 63 44 28 15 5 356 352 350 351 351 351 355 1 5 7 9 9 10 12 14 12 12 13 11 10 9 8 6 5 4 1 360 358 356 355 354 352 351 349 347 344 340 334 328 322 315 309 304 300 299 298 293 288 286 284 283 283 283 280 276 272 269 268
359 354 352 345 333 7 57 50 39 41 80 98 101 104 106 104 102 102 96 78 51 26 6 354 347 342 339 335 334 334 334 334 334 335 337 339 341 344 347 349 352 353 355 357 358 358 358 358 358 357 356 356 355 354 352 351 349 348 347 345 345 344 343 341 339 336 332 327 323 318 313 309 305 301 296 291 289 289 290 291 289 285 280 277 276
349 344 341 330 326 109 102 89 79 79 87 95 100 99 96 93 84 62 29 359 343 337 333 331 330 330 329 328 328 329 328 326 322 320 320 321 323 324 326 329 331 334 337 341 342 344 346 346 347 347 346 346 346 345 345 344 343 342 341 340 339 339 338 337 337 337 335 333 330 326 322 318 314 310 306 301 297 294 292 291 291 290 288 286 285
322 329 320 301 267 147 130 119 111 106 99 93 89 72 43 9 340 328 324 321 321 321 322 322 323 323 323 323 322 321 320 317 315 313 312 312 311 311 311 312 315 319 323 326 329 332 334 335 336 337 337 337 338 337 337 337 336 335 335 335 334 334 333 333 332 332 332 331 330 328 326 323 320 317 314 310 306 302 300 297 296 294 293 291 289
287 286 266 249 242 221 189 165 151 173 267 296 304 307 306 307 308 310 311 313 315 317 317 318 318 318 318 318 317 316 314 312 310 308 307 305 304 303 304 305 307 310 313 316 319 322 325 326 328 329 330 330 331 331 330 331 330 330 330 329 329 328 328 327 327 326 326 325 325 325 324 323 322 320 318 316 313 310 308 306 304 301 299 297 294
271 263 251 247 249 254 260 265 267 275 282 287 292 296 299 301 304 307 309 310 312 313 313 313 312 313 313 314 313 312 311 309 307 305 304 303 301 300 300 301 303 305 307 310 312 314 316 318 319 321 322 323 324 324 324 324 324 324 324 323 323 323 323 322 322 321 321 321 320 320 320 319 319 319 318 316 315 313 311 309 307 305 303 301 298
265 259 257 258 261 267 274 278 279 281 284 287 290 294 297 299 302 304 305 306 307 307 308 309 309 309 309 310 310 310 309 307 306 304 303 302 300 299 298 298 299 301 303 304 306 308 310 311 312 314 315 316 316 317 317 318 318 318 318 318 318 318 318 318 318 318 317 317 317 316 316 315 315 315 315 314 313 311 310 308 306 305 303 302 300
263 263 263 265 269 273 278 282 285 288 290 292 294 296 297 299 301 302 303 303 304 304 306 307 309 309 309 308 309 308 307 306 305 302 300 299 298 298 297 296 296 298 300 301 303 304 306 307 308 309 310 311 311 312 313 313 313 313 313 313 313 313 313 313 313 313 314 314 314 313 313 313 312 312 311 311 310 309 308 307 306 304 302 301 300
267 267 270 275 281 284 284 286 288 290 292 294 295 296 298 299 299 300 301 303 304 306 308 309 310 312 312 312 312 312 311 311 309 306 302 298 297 296 296 294 294 295 297 299 300 301 302 304 305 306 307 308 308 308 309 309 309 309 309 309 309 309 309 309 309 309 309 309 309 309 309 309 309 309 309 309 308 307 306 306 305 304 302 301 299
270 271 283 293 296 295 291 289 289 290 292 293 294 295 296 296 297 298 299 301 303 305 307 308 309 310 312 315 318 319 318 317 315 312 308 304 300 298 296 295 294 294 295 296 298 299 300 301 302 303 303 304 304 305 305 306 306 306 306 306 306 306 306 306 306 306 306 305 305 305 305 305 304 304 305 305 305 305 305 304 303 303 302 301 299
264 260 272 292 300 297 293 290 289 289 291 293 294 294 294 295 296 298 299 300 302 304 306 308 309 309 310 313 317 321 322 322 319 316 312 308 305 301 298 296 295 294 295 295 296 297 298 299 300 301 302 302 302 303 303 303 303 303 303 303 303 303 303 303 303 303 302 302 301 300 299 299 299 299 299 300 300 301 302 302 301 301 301 300 299
265 256 260 278 287 286 286 286 287 288 293 296 298 299 297 297 298 300 301 303 305 308 310 312 312 311 311 311 313 317 320 323 323 322 318 313 308 303 299 296 294 293 293 293 294 295 296 296 297 298 299 299 300 301 301 302 301 301 300 300 300 300 300 300 300 300 300 299 298 296 294 293 293 293 293 294 295 296 297 298 298 298 298 298 298
268 264 268 277 280 278 278 280 279 279 282 289 295 298 298 296 296 298 300 302 305 308 311 311 310 309 309 309 309 311 315 318 321 322 322 318 311 304 298 295 293 292 292 292 293 294 295 296 296 297 297 297 298 298 299 299 299 299 299 299 299 299 299 299 299 299 298 297 296 294 291 289 288 287 287 288 289 290 292 294 295 295 295 295 295
268 269 270 271 270 268 271 273 273 272 273 276 282 288 288 287 289 291 293 295 297 300 302 302 301 302 304 305 306 308 311 314 316 318 319 318 314 307 299 295 293 292 291 292 292 293 295 296 296 297 297 297 297 298 298 298 298 297 297 298 298 298 298 299 298 298 297 296 295 294 291 288 285 284 283 283 283 285 287 289 291 292 292 292 292
271 271 272 270 266 263 263 267 272 276 277 277 279 281 281 281 283 285 286 287 290 293 294 293 292 294 298 300 302 304 307 309 312 313 314 314 311 306 300 295 293 292 292 292 292 293 294 295 295 296 296 296 297 298 298 298 298 297 297 297 298 298 298 299 299 299 298 296 295 293 291 288 285 282 281 280 280 280 282 284 286 288 288 288 288
271 270 268 267 265 264 264 266 271 277 281 281 281 280 280 279 280 280 281 283 287 290 290 288 288 291 294 297 299 301 302 305 308 310 310 309 307 302 297 293 291 290 291 291 291 292 293 294 294 294 295 296 296 297 297 297 297 297 296 297 297 297 298 298 298 298 297 296 294 292 290 287 285 282 280 279 278 278 279 280 282 284 285 285 285
Height
3085 3085 3084 3084 3084 3083 3083 3084 3085 3085 3086 3087 3088 3089 3090 3092 3093 3094 3095 3096 3097 3099 3100 3101 3103 3103 3103 3104 3107 3110 3113 3116 3119 3121 3124 3127 3129 3132 3134 3137 3139 3141 3142 3144 3146 3147 3149 3151 3153 3154 3156 3157 3158 3160 3162 3164 3165 3166 3167 3169 3170 3171 3171 3172 3172 3172 3174 3175 3176 3176 3176 3176 3176 3177 3177 3177 3177 3178 3177 3177 3178 3179 3179 3180 3180
3085 3084 3083 3083 3083 3082 3082 3083 3083 3084 3084 3085 3086 3087 3088 3089 3090 3092 3093 3094 3096 3097 3098 3099 3101 3101 3100 3101 3103 3107 3110 3113 3115 3118 3121 3124 3126 3129 3131 3134 3136 3138 3139 3141 3143 3145 3147 3148 3150 3151 3153 3154 3156 3157 3159 3160 3161 3163 3164 3165 3167 3168 3168 3169 3169 3169 3171 3172 3173 3173 3173 3174 3174 3174 3175 3175 3175 3175 3175 3175 3176 3176 3177 3177 3178
3084 3083 3082 3082 3082 3081 3081 3081 3082 3082 3083 3083 3084 3085 3086 3087 3088 3089 3091 3092 3093 3095 3096 3097 3099 3099 3099 3099 3101 3105 3108 3110 3113 3116 3118 3121 3124 3126 3128 3130 3132 3134 3136 3137 3139 3141 3143 3145 3147 3148 3150 3151 3153 3155 3156 3157 3158 3160 3161 3162 3163 3164 3165 3166 3167 3167 3167 3168 3170 3170 3171 3171 3171 3172 3172 3172 3172 3172 3173 3173 3174 3174 3174 3174 3175
3082 3082 3081 3081 3081 3080 3080 3080 3080 3081 3081 3082 3082 3083 3084 3085 3086 3087 3089 3090 3091 3093 3094 3095 3097 3098 3098 3099 3100 3103 3106 3108 3111 3113 3115 3118 3120 3122 3124 3125 3128 3130 3131 3133 3136 3137 3139 3141 3143 3145 3147 3148 3150 3151 3152 3154 3155 3157 3158 3159 3160 3161 3162 3163 3163 3164 3165 3165 3166 3167 3168 3168 3169 3169 3169 3170 3170 3170 3170 3171 3171 3171 3171 3171 3172
3081 3080 3080 3080 3079 3079 3079 3079 3079 3079 3080 3080 3081 3081 3082 3083 3084 3085 3087 3088 3089 3091 3092 3093 3094 3096 3097 3098 3099 3101 3104 3106 3107 3109 3111 3113 3116 3119 3121 3122 3124 3125 3126 3128 3131 3133 3135 3138 3140 3142 3143 3145 3147 3148 3149 3151 3152 3153 3155 3156 3157 3158 3158 3159 3160 3161 3161 3162 3162 3163 3164 3165 3166 3166 3166 3166 3167 3167 3168 3168 3168 3168 3169 3169 3169
3079 3079 3079 3078 3078 3078 3078 3078 3078 3078 3079 3079 3080 3080 3081 3081 3082 3083 3084 3086 3087 3088 3090 3091 3092 3094 3095 3097 3098 3099 3101 3103 3105 3106 3107 3110 3113 3116 3118 3119 3121 3122 3123 3124 3126 3129 3132 3134 3136 3138 3139 3141 3143 3144 3146 3147 3148 3150 3151 3152 3153 3154 3154 3155 3156 3157 3158 3158 3159 3160 3161 3162 3163 3163 3163 3163 3164 3164 3165 3165 3165 3165 3166 3166 3167
3078 3078 3078 3078 3077 3077 3077 3077 3077 3077 3078 3078 3079 3079 3080 3080 3081 3082 3082 3084 3085 3086 3087 3089 3090 3091 3093 3095 3096 3097 3099 3101 3103 3104 3105 3107 3110 3112 3114 3115 3117 3119 3120 3122 3123 3125 3127 3129 3131 3133 3135 3137 3139 3139 3141 3143 3144 3146 3147 3149 3150 3150 3151 3152 3153 3153 3154 3155 3156 3156 3157 3158 3159 3159 3160 3160 3160 3160 3162 3162 3162 3162 3163 3164 3164
3077 3077 3077 3077 3077 3077 3077 3077 3077 3077 3077 3077 3078 3078 3079 3079 3079 3080 3081 3082 3083 3084 3085 3086 3087 3089 3090 3092 3093 3095 3097 3098 3100 3102 3103 3105 3107 3108 3110 3111 3113 3115 3117 3118 3120 3122 3123 3125 3126 3129 3131 3133 3134 3134 3136 3139 3140 3142 3143 3144 3145 3147 3147 3148 3149 3150 3150 3151 3152 3153 3153 3154 3155 3155 3156 3156 3156 3157 3159 3159 3158 3159 3160 3160 3161
3075 3076 3076 3076 3076 3076 3076 3076 3076 3076 3077 3077 3077 3077 3077 3078 3078 3079 3079 3080 3081 3082 3083 3084 3085 3086 3087 3088 3090 3091 3093 3095 3096 3098 3099 3101 3103 3104 3106 3108 3110 3112 3113 3115 3117 3118 3119 3121 3122 3124 3126 3128 3130 3131 3133 3135 3137 3138 3139 3138 3139 3142 3143 3144 3145 3146 3147 3148 3149 3149 3150 3151 3151 3152 3152 3153 3154 3155 3156 3155 3155 3156 3156 3156 3157
3074 3074 3075 3075 3075 3075 3075 3075 3075 3076 3076 3076 3076 3076 3076 3077 3077 3077 3077 3078 3079 3080 3081 3082 3083 3083 3084 3085 3086 3087 3089 3090 3092 3094 3096 3098 3099 3101 3103 3105 3107 3109 3110 3111 3113 3114 3116 3117 3119 3120 3122 3124 3126 3128 3130 3131 3132 3134 3134 3134 3135 3137 3138 3140 3142 3143 3143 3144 3145 3146 3146 3147 3148 3149 3149 3149 3151 3152 3152 3151 3152 3153 3153 3152 3152
3073 3073 3074 3074 3074 3075 3075 3075 3075 3075 3075 3075 3075 3075 3076 3076 3076 3076 3076 3076 3077 3078 3079 3079 3080 3081 3082 3082 3083 3083 3084 3086 3088 3091 3093 3095 3097 3098 3100 3102 3104 3105 3107 3108 3109 3111 3112 3113 3115 3116 3118 3120 3122 3124 3125 3127 3128 3130 3131 3132 3133 3133 3134 3136 3137 3139 3140 3141 3142 3142 3143 3144 3145 3146 3145 3145 3146 3147 3148 3148 3148 3149 3149 3148 3148
3072 3072 3072 3073 3074 3074 3074 3074 3074 3074 3074 3075 3075 3075 3075 3075 3075 3074 3074 3074 3075 3076 3076 3077 3078 3079 3079 3080 3080 3081 3082 3084 3086 3088 3090 3091 3093 3095 3096 3098 3099 3101 3103 3105 3106 3108 3109 3110 3112 3113 3115 3117 3118 3120 3122 3123 3124 3126 3127 3128 3129 3130 3131 3132 3134 3134 3135 3137 3138 3138 3139 3140 3141 3142 3142 3141 3142 3143 3144 3144 3144 3145 3145 3144 3144
3071 3071 3072 3072 3073 3073 3073 3074 3074 3074 3074 3074 3074 3074 3074 3074 3074 3073 3073 3073 3073 3074 3074 3075 3076 3076 3077 3077 3078 3080 3081 3082 3083 3084 3085 3087 3089 3091 3092 3093 3095 3097 3099 3100 3102 3104 3105 3107 3108 3110 3111 3113 3114 3115 3117 3119 3120 3121 3122 3124 3125 3126 3127 3128 3129 3130 3131 3132 3133 3134 3136 3137 3137 3138 3139 3138 3138 3139 3139 3139 3140 3140 3140 3140 3140
3071 3071 3071 3072 3072 3072 3073 3073 3073 3073 3073 3073 3073 3073 3073 3073 3073 3073 3072 3072 3072 3072 3073 3073 3074 3074 3075 3076 3076 3077 3079 3079 3080 3081 3082 3084 3086 3087 3088 3089 3091 3092 3094 3096 3097 3099 3101 3102 3103 3105 3107 3109 3110 3111 3112 3114 3115 3116 3117 3118 3119 3121 3122 3123 3124 3125 3126 3127 3128 3129 3131 3133 3132 3133 3134 3134 3134 3134 3135 3135 3134 3134 3135 3135 3136
3071 3071 3071 3071 3071 3071 3072 3072 3072 3073 3073 3073 3073 3073 3073 3073 3072 3072 3072 3072 3072 3072 3072 3072 3072 3073 3073 3074 3074 3075 3076 3077 3078 3079 3080 3081 3082 3084 3085 3086 3087 3088 3090 3091 3093 3094 3096 3097 3099 3100 3102 3104 3105 3106 3107 3108 3109 3110 3110 3111 3113 3115 3116 3117 3119 3120 3121 3122 3122 3124 3126 3128 3128 3129 3129 3129 3129 3129 3130 3129 3128 3128 3129 3130 3131
3071 3070 3070 3070 3070 3070 3071 3071 3071 3072 3072 3072 3072 3072 3072 3072 3072 3072 3071 3071 3071 3071 3071 3071 3071 3071 3072 3072 3073 3073 3074 3075 3076 3077 3078 3079 3079 3080 3081 3082 3083 3084 3086 3087 3088 3089 3091 3092 3094 3096 3097 3099 3100 3101 3102 3103 3103 3104 3104 3105 3107 3108 3110 3111 3113 3114 3115 3116 3117 3118 3120 3122 3123 3123 3124 3124 3123 3124 3124 3122 3122 3124 3125 3125 3126
3070 3070 3070 3070 3070 3070 3070 3070 3071 3071 3072 3072 3072 3072 3072 3072 3072 3072 3071 3071 3071 3071 3071 3070 3070 3070 3071 3071 3071 3072 3072 3073 3074 3074 3075 3076 3077 3077 3078 3079 3080 3081 3082 3083 3084 3085 3086 3088 3089 3090 3092 3093 3095 3095 3096 3097 3098 3098 3099 3100 3101 3102 3104 3106 3107 3108 3109 3110 3111 3112 3113 3115 3116 3117 3118 3118 3118 3119 3118 3115 3117 3121 3121 3119 3120
3070 3070 3070 3069 3069 3069 3069 3070 3070 3071 3071 3071 3071 3071 3071 3071 3071 3071 3071 3071 3070 3070 3070 3070 3070 3070 3070 3070 3070 3070 3071 3071 3072 3072 3072 3073 3074 3075 3075 3076 3077 3078 3079 3080 3081 3082 3082 3083 3084 3085 3086 3087 3088 3089 3090 3091 3091 3092 3093 3094 3095 3096 3098 3100 3102 3102 3103 3103 3104 3106 3107 3108 3109 3109 3111 3112 3112 3113 3111 3110 3114 3116 3114 3113 3114
3070 3070 3069 3069 3069 3069 3069 3069 3069 3069 3070 3070 3070 3070 3070 3070 3070 3070 3070 3070 3070 3070 3069 3069 3069 3069 3069 3069 3069 3069 3069 3070 3070 3070 3070 3071 3071 3072 3073 3074 3075 3075 3076 3077 3078 3078 3079 3079 3080 3080 3081 3081 3082 3083 3083 3084 3084 3085 3086 3087 3088 3089 3091 3093 3094 3095 3095 3096 3097 3098 3100 3101 3102 3102 3103 3105 3106 3106 3105 3105 3108 3109 3107 3107 3109
3069 3069 3069 3069 3069 3068 3068 3068 3068 3068 3069 3069 3069 3069 3069 3069 3069 3069 3069 3069 3069 3069 3069 3068 3068 3068 3068 3068 3068 3068 3068 3068 3068 3069 3069 3069 3069 3070 3071 3071 3072 3073 3074 3074 3075 3075 3075 3076 3076 3076 3076 3077 3077 3078 3078 3078 3078 3079 3080 3080 3081 3083 3084 3085 3086 3086 3087 3088 3089 3090 3091 3093 3094 3094 3095 3097 3098 3099 3098 3099 3101 3102 3101 3101 3102
3069 3069 3069 3068 3068 3068 3067 3067 3067 3067 3067 3067 3067 3068 3068 3068 3068 3068 3068 3068 3068 3068 3068 3068 3068 3067 3067 3067 3067 3067 3067 3067 3067 3067 3068 3068 3068 3068 3069 3070 3070 3071 3071 3072 3072 3072 3072 3072 3072 3072 3072 3073 3073 3073 3073 3073 3073 3073 3074 3074 3075 3076 3077 3077 3078 3079 3079 3080 3081 3082 3083 3084 3086 3087 3087 3089 3090 3090 3091 3092 3093 3094 3094 3093 3094
3068 3068 3068 3067 3067 3067 3067 3066 3066 3066 3066 3066 3066 3066 3066 3067 3067 3067 3067 3067 3067 3067 3067 3067 3067 3066 3066 3066 3066 3066 3066 3066 3066 3066 3066 3067 3067 3067 3068 3068 3068 3069 3069 3069 3069 3069 3069 3069 3069 3069 3069 3069 3069 3069 3069 3068 3068 3068 3068 3069 3069 3070 3070 3070 3070 3071 3072 3073 3073 3074 3075 3076 3077 3078 3079 3081 3082 3082 3083 3083 3084 3085 3085 3086 3086
3068 3068 3067 3067 3067 3066 3066 3066 3066 3065 3065 3065 3065 3065 3065 3065 3065 3065 3065 3065 3065 3065 3065 3065 3065 3065 3065 3065 3065 3065 3065 3065 3065 3065 3065 3065 3066 3066 3066 3066 3067 3067 3067 3067 3067 3067 3067 3067 3066 3066 3066 3066 3065 3065 3064 3064 3063 3063 3063 3063 3063 3063 3064 3064 3064 3065 3066 3066 3066 3066 3067 3069 3070 3071 3072 3073 3074 3075 3074 3074 3074 3074 3075 3076 3077
3068 3067 3067 3067 3066 3066 3066 3065 3065 3065 3065 3064 3064 3064 3064 3064 3064 3064 3064 3064 3064 3064 3064 3064 3064 3063 3063 3063 3063 3063 3063 3063 3063 3064 3064 3064 3064 3064 3065 3065 3065 3065 3065 3065 3065 3065 3065 3065 3064 3063 3063 3062 3062 3061 3061 3060 3059 3058 3058 3058 3058 3058 3058 3058 3059 3059 3060 3060 3060 3060 3061 3062 3062 3063 3064 3065 3067 3067 3066 3065 3064 3065 3065 3067 3069
3068 3067 3067 3066 3066 3066 3065 3065 3064 3064 3064 3064 3064 3064 3064 3063 3063 3063 3063 3063 3063 3063 3062 3062 3062 3062 3062 3062 3062 3062 3062 3062 3062 3062 3062 3062 3062 3062 3062 3063 3063 3063 3063 3063 3063 3063 3063 3062 3062 3061 3060 3059 3058 3058 3057 3055 3054 3054 3053 3053 3053 3053 3053 3053 3054 3054 3054 3054 3054 3054 3055 3056 3057 3057 3057 3058 3058 3059 3059 3058 3057 3057 3059 3061 3062
3068 3068 3067 3067 3066 3066 3065 3065 3064 3064 3064 3064 3063 3063 3063 3063 3063 3063 3062 3062 3062 3062 3061 3061 3061 3061 3061 3060 3060 3060 3060 3060 3060 3060 3060 3060 3060 3060 3060 3060 3060 3060 3060 3060 3060 3060 3060 3060 3059 3058 3057 3056 3054 3053 3052 3051 3050 3049 3049 3048 3048 3048 3049 3049 3049 3049 3049 3049 3049 3049 3050 3051 3051 3051 3051 3051 3051 3052 3053 3052 3052 3053 3054 3054 3054
3068 3068 3068 3067 3067 3066 3065 3065 3065 3064 3064 3063 3063 3063 3063 3063 3063 3063 3062 3062 3062 3062 3061 3061 3061 3060 3060 3060 3060 3060 3060 3059 3059 3059 3059 3059 3059 3058 3058 3058 3058 3058 3057 3057 3057 3057 3057 3056 3056 3055 3054 3052 3051 3050 3048 3047 3046 3045 3045 3045 3045 3045 3045 3045 3045 3045 3045 3045 3045 3045 3045 3046 3045 3045 3045 3045 3045 3046 3047 3047 3048 3048 3048 3048 3046
3069 3068 3068 3068 3067 3067 3066 3065 3065 3065 3064 3064 3064 3063 3063 3063 3063 3063 3063 3062 3062 3062 3062 3061 3061 3061 3061 3060 3060 3060 3060 3059 3059 3059 3059 3058 3058 3058 3057 3057 3056 3056 3056 3055 3055 3055 3054 3054 3053 3052 3051 3049 3048 3047 3045 3044 3043 3043 3042 3042 3042 3042 3042 3042 3042 3041 3041 3041 3041 3041 3041 3041 3041 3041 3041 3041 3041 3042 3043 3043 3043 3043 3043 3042 3041
3069 3069 3068 3068 3068 3067 3067 3066 3066 3065 3065 3065 3064 3064 3064 3064 3064 3064 3064 3064 3063 3063 3063 3063 3062 3062 3062 3061 3061 3061 3061 3060 3060 3060 3059 3059 3058 3057 3057 3056 3056 3056 3055 3055 3054 3053 3053 3052 3051 3050 3049 3047 3046 3045 3043 3042 3041 3041 3040 3040 3040 3039 3039 3039 3038 3038 3037 3037 3037 3037 3037 3037 3037 3037 3037 3037 3036 3037 3038 3038 3038 3038 3037 3036 3035
3070 3069 3069 3069 3068 3068 3067 3067 3066 3066 3066 3066 3065 3065 3065 3065 3065 3065 3065 3065 3065 3064 3064 3064 3064 3063 3063 3062 3062 3062 3061 3061 3060 3060 3059 3059 3058 3058 3057 3056 3056 3055 3054 3054 3053 3052 3051 3050 3049 3048 3047 3046 3044 3043 3042 3041 3040 3039 3039 3038 3038 3037 3037 3036 3035 3035 3034 3034 3033 3033 3033 3032 3032 3033 3032 3032 3032 3032 3033 3033 3032 3032 3031 3030 3030
3070 3070 3069 3069 3069 3068 3068 3068 3067 3067 3067 3067 3066 3066 3066 3066 3066 3065 3065 3065 3065 3065 3065 3065 3064 3064 3063 3063 3062 3062 3061 3061 3060 3060 3059 3058 3058 3057 3056 3055 3055 3054 3053 3052 3051 3051 3050 3049 3047 3047 3046 3044 3043 3042 3041 3039 3038 3038 3037 3036 3036 3035 3034 3034 3033 3032 3032 3031 3030 3030 3029 3029 3028 3028 3028 3027 3027 3028 3028 3028 3027 3026 3026 3026 3025
3070 3070 3069 3069 3069 3069 3068 3068 3068 3067 3067 3067 3067 3067 3067 3066 3066 3066 3066 3066 3065 3065 3065 3065 3064 3064 3063 3063 3062 3062 3061 3061 3060 3059 3058 3058 3057 3056 3055 3054 3053 3052 3052 3051 3050 3049 3049 3047 3046 3045 3044 3043 3042 3041 3039 3038 3037 3036 3035 3035 3034 3033 3032 3032 3031 3030 3029 3028 3028 3027 3027 3026 3025 3024 3024 3023 3023 3023 3022 3022 3022 3021 3020 3020 3020
3069 3069 3069 3069 3069 3069 3068 3068 3068 3068 3067 3067 3067 3067 3067 3067 3066 3066 3066 3066 3065 3065 3065 3065 3064 3064 3063 3063 3062 3062 3061 3060 3060 3059 3058 3057 3056 3055 3054 3053 3053 3052 3051 3050 3050 3049 3048 3047 3046 3044 3043 3042 3041 3039 3038 3037 3036 3035 3034 3033 3032 3031 3030 3029 3028 3027 3027 3026 3025 3024 3024 3023 3022 3021 3020 3020 3019 3018 3018 3017 3017 3016 3015 3015 3014
3069 3069 3068 3068 3068 3068 3068 3068 3068 3068 3067 3067 3067 3067 3067 3067 3067 3066 3066 3066 3065 3065 3065 3065 3064 3064 3063 3063 3062 3062 3061 3060 3059 3058 3057 3057 3056 3055 3054 3053 3052 3051 3051 3050 3049 3048 3047 3046 3045 3044 3042 3041 3040 3038 3037 3036 3035 3033 3032 3031 3030 3029 3028 3027 3026 3025 3024 3023 3022 3021 3020 3019 3019 3018 3017 3016 3015 3014 3014 3013 3012 3011 3011 3009 3009
3068 3068 3068 3068 3068 3067 3067 3067 3067 3067 3067 3067 3067 3067 3067 3066 3066 3066 3066 3066 3065 3065 3065 3064 3064 3063 3063 3062 3062 3061 3060 3059 3059 3058 3057 3056 3055 3054 3053 3053 3052 3051 3050 3049 3048 3047 3046 3045 3044 3043 3042 3040 3039 3038 3037 3035 3034 3033 3031 3030 3029 3027 3026 3025 3024 3022 3021 3020 3019 3018 3017 3016 3015 3014 3014 3013 3012 3011 3010 3009 3008 3007 3006 3005 3004
3067 3067 3067 3067 3067 3067 3067 3067 3067 3067 3067 3067 3066 3066 3066 3066 3066 3066 3066 3066 3065 3065 3065 3064 3064 3063 3062 3062 3061 3060 3060 3059 3058 3057 3056 3055 3054 3053 3053 3052 3051 3050 3049 3048 3047 3046 3045 3044 3043 3042 3040 3039 3038 3037 3036 3034 3033 3031 3030 3029 3027 3026 3025 3023 3022 3021 3019 3018 3017 3016 3015 3013 3012 3011 3010 3009 3008 3007 3006 3006 3005 3004 3003 3002 3001
3067 3067 3067 3066 3066 3066 3066 3066 3066 3066 3066 3066 3066 3066 3066 3066 3066 3066 3066 3065 3065 3065 3064 3064 3063 3063 3062 3061 3060 3060 3059 3058 3057 3056 3055 3054 3053 3053 3052 3051 3050 3049 3048 3047 3046 3045 3044 3043 3042 3040 3039 3038 3037 3036 3034 3033 3032 3030 3029 3027 3026 3025 3023 3022 3020 3019 3017 3016 3015 3013 3012 3010 3009 3008 3007 3006 3004 3003 3002 3002 3001 3000 2999 2998 2997
3066 3066 3066 3066 3066 3066 3066 3066 3066 3066 3066 3066 3066 3066 3066 3066 3066 3066 3065 3065 3065 3064 3064 3063 3063 3062 3061 3060 3059 3058 3057 3056 3056 3055 3054 3053 3052 3051 3051 3050 3049 3048 3047 3046 3045 3044 3043 3042 3041 3039 3038 3037 3036 3034 3033 3032 3030 3029 3028 3026 3024 3023 3021 3020 3018 3017 3016 3014 3013 3011 3010 3008 3007 3005 3004 3003 3001 3000 2999 2998 2997 2996 2995 2994 2993
3066 3066 3066 3066 3066 3066 3065 3065 3066 3066 3066 3066 3066 3066 3066 3066 3065 3065 3065 3064 3064 3063 3063 3062 3061 3061 3060 3059 3058 3057 3056 3055 3054 3053 3052 3051 3051 3050 3049 3048 3047 3046 3046 3044 3043 3042 3041 3040 3039 3038 3037 3035 3034 3033 3032 3030 3029 3027 3026 3025 3023 3021 3020 3018 3017 3015 3014 3012 3011 3009 3008 3006 3004 3003 3001 3000 2998 2997 2996 2994 2993 2992 2991 2989 2988
3065 3065 3065 3065 3065 3065 3065 3065 3065 3065 3065 3065 3065 3065 3065 3065 3065 3064 3064 3063 3063 3062 3061 3060 3059 3059 3058 3057 3056 3055 3055 3054 3053 3052 3051 3050 3049 3048 3047 3046 3046 3045 3044 3043 3042 3041 3040 3038 3037 3036 3035 3033 3032 3031 3029 3028 3027 3025 3024 3023 3021 3019 3018 3016 3015 3013 3012 3010 3009 3007 3005 3004 3002 3000 2999 2997 2995 2994 2992 2991 2989 2988 2987 2986 2985
3064 3064 3064 3064 3065 3065 3065 3064 3064 3064 3064 3064 3064 3064 3064 3063 3063 3063 3062 3062 3061 3060 3059 3058 3058 3057 3056 3055 3054 3053 3053 3052 3051 3050 3049 3048 3047 3046 3045 3044 3043 3042 3041 3040 3039 3038 3037 3036 3035 3034 3032 3031 3030 3028 3027 3026 3024 3023 3021 3020 3018 3017 3015 3014 3012 3011 3009 3008 3006 3004 3003 3001 2999 2998 2996 2994 2993 2991 2989 2988 2986 2985 2984 2983 2982
3063 3063 3063 3063 3063 3064 3064 3064 3063 3063 3063 3063 3063 3062 3062 3062 3061 3061 3060 3060 3059 3058 3057 3056 3055 3054 3053 3052 3052 3050 3050 3049 3048 3047 3046 3046 3045 3044 3043 3042 3041 3039 3038 3037 3036 3035 3034 3033 3032 3031 3030 3029 3027 3026 3024 3023 3022 3020 3019 3017 3016 3014 3012 3011 3009 3007 3006 3004 3003 3001 3000 2998 2996 2995 2993 2992 2990 2988 2987 2985 2984 2982 2981 2980 2978
3061 3061 3061 3062 3062 3062 3062 3062 3062 3062 3061 3061 3061 3061 3060 3060 3059 3059 3058 3057 3057 3056 3055 3054 3053 3051 3050 3049 3049 3048 3047 3046 3045 3044 3043 3042 3041 3041 3040 3038 3037 3036 3035 3034 3033 3032 3031 3030 3029 3028 3027 3025 3024 3023 3021 3020 3018 3017 3015 3014 3012 3011 3009 3008 3006 3004 3002 3001 2999 2998 2996 2995 2993 2992 2990 2989 2987 2986 2984 2983 2981 2980 2978 2977 2975
3060 3060 3060 3060 3060 3060 3060 3060 3059 3059 3059 3059 3058 3058 3058 3057 3056 3056 3055 3055 3054 3053 3052 3051 3050 3049 3047 3046 3045 3044 3043 3042 3041 3041 3040 3039 3038 3037 3036 3035 3034 3033 3031 3030 3029 3028 3027 3026 3025 3024 3023 3022 3020 3019 3018 3017 3015 3013 3012 3010 3009 3007 3006 3004 3003 3001 2999 2998 2996 2994 2993 2991 2990 2988 2987 2985 2984 2982 2981 2979 2978 2977 2975 2974 2972
3058 3058 3058 3058 3058 3058 3057 3057 3057 3057 3056 3056 3056 3055 3055 3054 3054 3053 3052 3052 3051 3050 3049 3048 3047 3047 3045 3044 3043 3041 3040 3039 3038 3037 3036 3035 3034 3033 3032 3031 3030 3029 3028 3027 3025 3024 3023 3022 3021 3020 3018 3017 3016 3015 3014 3012 3011 3010 3008 3006 3005 3003 3002 3000 2999 2997 2996 2994 2992 2991 2989 2988 2986 2985 2983 2982 2980 2979 2978 2976 2975 2973 2972 2970 2969
3056 3056 3056 3056 3056 3055 3055 3055 3054 3054 3054 3053 3053 3052 3052 3051 3051 3050 3049 3049 3048 3048 3047 3046 3045 3044 3043 3042 3041 3039 3038 3037 3035 3034 3033 3032 3031 3030 3028 3027 3026 3025 3024 3023 3021 3020 3019 3018 3017 3015 3014 3013 3011 3010 3009 3008 3007 3005 3004 3002 3001 2999 2998 2996 2995 2993 2992 2990 2989 2987 2986 2984 2983 2981 2980 2978 2977 2975 2974 2973 2971 2970 2969 2967 2966
3053 3053 3053 3053 3053 3053 3053 3052 3052 3052 3051 3051 3050 3050 3049 3049 3048 3047 3046 3045 3045 3044 3044 3043 3042 3041 3040 3039 3038 3037 3035 3034 3032 3031 3029 3028 3027 3026 3025 3024 3022 3021 3020 3019 3017 3016 3015 3013 3012 3011 3010 3008 3007 3005 3004 3002 3001 3000 2999 2998 2996 2995 2993 2992 2990 2989 2987 2986 2984 2983 2982 2980 2979 2977 2976 2975 2973 2972 2971 2969 2968 2967 2966 2964 2963
3050 3051 3051 3051 3051 3051 3051 3050 3050 3049 3049 3048 3048 3047 3047 3046 3046 3045 3044 3043 3042 3041 3041 3040 3039 3038 3036 3035 3034 3033 3032 3030 3029 3028 3026 3025 3023 3022 3020 3019 3018 3017 3016 3014 3013 3012 3010 3009 3007 3006 3005 3004 3002 3001 2999 2998 2996 2995 2994 2993 2991 2990 2988 2986 2985 2984 2982 2981 2979 2978 2977 2976 2975 2973 2972 2971 2970 2968 2967 2966 2965 2963 2962 2961 2959
3048 3048 3048 3048 3048 3048 3048 3047 3046 3046 3046 3045 3045 3044 3044 3044 3043 3042 3041 3040 3039 3039 3038 3038 3036 3034 3033 3032 3030 3029 3028 3026 3025 3024 3022 3021 3019 3018 3016 3014 3013 3012 3011 3009 3008 3007 3005 3004 3002 3001 3000 2998 2997 2995 2994 2992 2991 2990 2988 2987 2986 2984 2983 2981 2980 2978 2977 2976 2974 2973 2972 2971 2970 2969 2968 2966 2965 2964 2963 2962 2961 2960 2959 2958 2956
3044 3044 3044 3044 3044 3044 3044 3043 3043 3043 3043 3042 3042 3042 3041 3040 3040 3039 3038 3037 3036 3036 3035 3034 3033 3031 3030 3028 3026 3025 3024 3022 3021 3019 3018 3016 3015 3013 3012 3010 3008 3007 3006 3005 3003 3002 3000 2999 2997 2996 2995 2993 2991 2990 2988 2986 2985 2984 2983 2982 2980 2979 2977 2976 2974 2973 2972 2970 2969 2968 2967 2966 2965 2964 2963 2962 2961 2960 2959 2958 2957 2956 2955 2954 2953
3040 3040 3040 3040 3040 3040 3040 3040 3040 3039 3039 3039 3038 3038 3037 3036 3036 3035 3034 3033 3032 3032 3031 3030 3029 3027 3026 3024 3022 3021 3019 3018 3016 3015 3013 3012 3010 3008 3007 3005 3004 3002 3001 3000 2998 2997 2996 2994 2993 2991 2989 2988 2986 2984 2983 2981 2979 2978 2977 2975 2974 2973 2972 2970 2969 2967 2966 2965 2964 2963 2962 2961 2960 2959 2958 2957 2956 2955 2954 2954 2953 2952 2951 2950 2950